Date,TemperatureHighF,TemperatureAvgF,TemperatureLowF,DewpointHighF,DewpointAvgF,DewpointLowF,HumidityHigh,HumidityAvg,HumidityLow,PressureMaxIn,PressureMinIn,WindSpeedMaxMPH,WindSpeedAvgMPH,GustSpeedMaxMPH,PrecipitationSumIn
2013-2-1,74.7,62.3,53.1,46.3,40.7,34.4,58,46,29,30.05,29.98,5,0,7,0.00
2013-2-2,74.2,64.1,57.1,50.1,43.9,38.3,64,48,32,30.07,29.98,4,0,4,0.00
2013-2-3,71.9,61.6,52.2,49.1,46.2,43.5,73,58,42,30.01,29.89,6,1,8,0.00
2013-2-4,71.2,57.3,47.2,53.7,46.9,41.0,95,70,47,29.97,29.86,5,0,7,0.00
2013-2-5,54.7,48.4,41.7,49.9,46.2,40.5,96,92,83,29.99,29.87,3,0,5,0.01
2013-2-6,62.9,52.5,46.3,49.7,46.5,42.8,93,81,57,30.00,29.90,5,0,9,0.00
2013-2-7,62.3,51.1,44.2,51.3,45.6,41.5,92,82,64,30.02,29.89,6,0,9,0.00
2013-2-8,49.0,44.6,40.2,45.7,41.0,37.7,92,87,73,29.90,29.79,8,1,15,0.49
2013-2-9,55.4,43.7,35.9,41.6,37.1,33.4,93,79,50,30.01,29.82,7,1,10,0.00
2013-2-10,52.9,44.3,38.1,43.7,38.3,32.5,89,80,61,30.01,29.92,6,0,8,0.02
2013-2-11,59.8,47.2,38.9,42.4,32.6,16.7,89,63,19,30.13,29.95,9,1,14,0.01
2013-2-12,63.6,49.0,38.8,42.4,32.0,23.1,70,53,31,30.23,30.13,6,0,8,0.00
2013-2-13,67.8,53.0,41.9,45.4,35.5,29.4,66,52,32,30.15,30.02,6,0,7,0.00
2013-2-14,74.9,59.2,46.3,47.7,37.7,25.8,69,47,22,30.10,29.94,6,1,14,0.00
2013-2-15,79.3,68.7,60.2,28.9,22.0,9.1,30,18,9,30.05,29.99,12,2,17,0.00
2013-2-16,80.6,66.1,55.6,27.9,20.4,9.1,28,18,10,30.02,29.85,5,1,11,0.00
2013-2-17,67.8,54.4,45.0,49.3,36.1,19.2,89,54,23,29.91,29.80,7,1,11,0.00
2013-2-18,64.0,51.5,45.5,48.0,44.3,41.4,89,77,53,29.95,29.85,6,1,10,0.00
2013-2-19,49.2,47.0,42.9,46.3,42.2,37.9,94,84,68,29.88,29.60,6,0,11,0.49
2013-2-20,56.5,46.1,36.2,42.0,36.8,31.0,94,72,41,29.90,29.60,7,1,12,0.00
2013-2-21,57.6,47.6,42.0,45.3,40.7,35.6,87,77,50,29.98,29.86,7,0,8,0.04
2013-2-22,64.7,50.6,39.7,42.8,34.3,29.8,75,56,29,30.09,29.98,6,1,10,0.00
2013-2-23,65.5,51.1,43.1,45.8,36.4,26.5,86,59,32,30.06,29.82,7,1,11,0.00
2013-2-24,64.9,54.7,43.8,43.3,15.4,-1.5,90,29,8,30.09,29.85,13,2,21,0.00
2013-2-25,68.4,53.7,44.1,30.1,20.6,10.3,51,29,12,30.10,29.96,6,1,9,0.00
2013-2-26,69.4,54.7,40.1,46.1,33.1,17.6,63,45,22,30.00,29.87,5,0,9,0.00
2013-2-27,73.1,63.3,53.3,23.6,14.7,5.4,25,16,9,30.14,30.00,13,1,15,0.00
2013-2-28,79.1,64.1,52.9,29.3,19.6,6.8,30,19,10,30.18,30.11,8,1,10,0.00